This is the latest recevied weather packets stored in our database for station/object R2AKT-13. If no packets are shown the sender has not sent any weather packets the latest 10 day(s).
| Time | Temp. | Humidity | Pressure | Rain* | Wind** | Luminosity | Snow |
|---|---|---|---|---|---|---|---|
| 1778069769 | 22.78° C | 40% | 984.3 hPa | - | 2.68 m/s, 258° | - | - |
| 1778069229 | 23.33° C | 39% | 984.3 hPa | - | 1.79 m/s, 209° | - | - |
| 1778068684 | 23.33° C | 40% | 984.2 hPa | - | 2.24 m/s, 243° | - | - |
| 1778068154 | 23.89° C | 38% | 984.2 hPa | - | 1.34 m/s, 198° | - | - |
| 1778067674 | 23.33° C | 39% | 984.3 hPa | - | 0.89 m/s, 137° | - | - |
| 1778067159 | 23.33° C | 39% | 984.2 hPa | - | 1.34 m/s, 206° | - | - |
| 1778066628 | 23.89° C | 38% | 984.3 hPa | - | 1.34 m/s, 175° | - | - |
| 1778066049 | 23.33° C | 40% | 984.2 hPa | - | 0.89 m/s, 201° | - | - |
| 1778065499 | 23.33° C | 40% | 984.3 hPa | - | 0.89 m/s, 277° | - | - |
| 1778064909 | 23.33° C | 40% | 984.2 hPa | - | 0.89 m/s, 222° | - | - |
| 1778064369 | 23.33° C | 40% | 984.3 hPa | - | 0.89 m/s, 154° | - | - |
| 1778063874 | 22.78° C | 41% | 984.3 hPa | - | 0.45 m/s, 239° | - | - |
| 1778063379 | 22.78° C | 42% | 984.3 hPa | - | 0.89 m/s, 291° | - | - |
| 1778062819 | 21.67° C | 44% | 984.4 hPa | - | 0.89 m/s, 266° | - | - |
| 1778062314 | 21.11° C | 45% | 984.4 hPa | - | 0.45 m/s, 257° | - | - |
| 1778061829 | 21.67° C | 44% | 984.2 hPa | - | 1.34 m/s, 267° | - | - |
| 1778061299 | 22.22° C | 43% | 984.4 hPa | - | 0 m/s | - | - |
| 1778060714 | 21.11° C | 45% | 984.4 hPa | - | 0.45 m/s, 201° | - | - |
| 1778060124 | 21.11° C | 44% | 984.4 hPa | - | 0 m/s | - | - |
| 1778059644 | 21.67° C | 45% | 984.4 hPa | - | 0.45 m/s, 264° | - | - |
| 1778059129 | 21.11° C | 46% | 984.3 hPa | - | 0.45 m/s, 100° | - | - |
| 1778058539 | 21.11° C | 45% | 984.4 hPa | - | 0 m/s | - | - |
| 1778057984 | 20.56° C | 47% | 984.4 hPa | - | 0 m/s | - | - |
| 1778057469 | 20.56° C | 46% | 984.4 hPa | - | 0.45 m/s, 266° | - | - |
| 1778056979 | 20.56° C | 46% | 984.4 hPa | - | 0.89 m/s, 208° | - | - |
* Rain since midnight (hover to see other rain measurements)
** Current wind speed in m/s (hover to see current wind gust speed)